Flag for U.S.A. Weather past 2 weeks in Durham, North Carolina, U.S.A.

Now
70 °F

Passing clouds.


Feels Like: 64 °F
Forecast: 71 / 88 °F
Wind: 6 mph from Southeast

Location: Raleigh-Durham International Airport

Current Time: Jul 6, 2015 at 3:37:52 AM

Latest Report: Jul 6, 2015 at 2:51 AM


Visibility: 10 mi

Pressure: 30.09 "Hg

Humidity: 97%

Dew point: 69 °F

Location of DurhamLocation

Historic Weather in Durham — Graph

°F

Durham temperature yesterday

Maximum temperature yesterday: 90 °F (at 3:51 PM)
Minimum temperature yesterday: 70 °F (at 8:56 PM)
Average temperature yesterday: 78 °F

Past Weeks' High & Low Weather Summary

 TemperatureHumidityPressure
High97 °F (Jun 23, 2:51 PM)97% (Jun 29, 4:51 AM)30.16 "Hg (Jun 29, 4:51 AM)
Low60 °F (Jun 29, 5:51 AM)37% (Jun 22, 4:51 PM)29.74 "Hg (Jun 28, 2:51 AM)
Average79 °F72%29.95 "Hg
* Reported Jun 21 1:51 AM — Jul 6 1:51 AM, Durham, Weather by CustomWeather, © 2015

Note: Actual official high and low records may vary slightly from our data, if they occured in-between our weather recording intervals... More about our weather records

Advertising

Durham weather history for previous 24 hours

 ConditionsComfort  
Time TempWeatherWind HumidityBarometerVisibility
1:51 AM
Mon, Jul 6
71 °FPassing clouds.5 mph93%30.08 "Hg10 mi
12:51 AM71 °FPassing clouds.No wind93%30.09 "Hg10 mi
11:51 PM
Sun, Jul 5
70 °FPassing clouds.No wind93%30.09 "Hg10 mi
10:51 PM70 °FPartly cloudy.5 mph93%30.11 "Hg10 mi
10:02 PM70 °FLight rain. Mostly cloudy.No wind94%30.12 "Hg5 mi
8:56 PM70 °FThunderstorms. Fog.29 mph88%30.16 "Hg1 mi
7:51 PM79 °FPartly sunny.No wind72%30.06 "Hg10 mi
6:51 PM81 °FPartly sunny.3 mph65%30.05 "Hg10 mi
5:51 PM83 °FBroken clouds.15 mph61%30.04 "Hg10 mi
4:51 PM82 °FMostly cloudy.8 mph72%30.06 "Hg10 mi
3:51 PM90 °FBroken clouds.9 mph52%30.05 "Hg10 mi
2:51 PM82 °FBroken clouds.5 mph74%30.08 "Hg10 mi
1:51 PM89 °FBroken clouds.10 mph53%30.08 "Hg10 mi
12:51 PM86 °FBroken clouds.6 mph61%30.11 "Hg10 mi
11:51 AM87 °FPartly sunny.8 mph63%30.11 "Hg10 mi
10:51 AM83 °FPartly sunny.7 mph70%30.11 "Hg10 mi
9:51 AM82 °FPartly sunny.7 mph72%30.11 "Hg10 mi
8:51 AM80 °FPartly sunny.7 mph74%30.10 "Hg10 mi
7:51 AM75 °FScattered clouds.8 mph79%30.10 "Hg10 mi
6:51 AM73 °FPartly cloudy.3 mph88%30.09 "Hg10 mi
5:51 AM72 °FPartly cloudy.6 mph87%30.08 "Hg10 mi
4:51 AM71 °FPartly cloudy.3 mph90%30.06 "Hg10 mi
3:51 AM71 °FPartly cloudy.3 mph90%30.05 "Hg10 mi
Weather by CustomWeather, © 2015

See weather overviewHow to use our weather pages